Location: *
(24.1434°N, 56.8729°E)
Time: 05:38:06
(UTC+00:00)

Meteor 1-11 - Pass Details

Date: 09 April 2020
Orbit: 841 x 886 km, 81.2° (Epoch: 05 June)

Event Time Altitude Azimuth Distance (km) Brightness Sun altitude
Rises 16:16:37 0° 353° (N) 3,451 7.8 -23.9°
Reaches altitude 10° 16:19:03 10° 353° (N) 2,505 7.0 -24.4°
Maximum altitude 16:24:45 90° 77° (ENE) 860 4.1 -25.6°
Enters shadow 16:26:07 54° 174° (S) 1,027 4.4 -25.9°
